Time,TemperatureF,DewpointF,PressureIn,WindDirection,WindDirectionDegrees,WindSpeedMPH,WindSpeedGustMPH,Humidity,HourlyPrecipIn,Conditions,Clouds,dailyrainin,SoftwareType,DateUTC
2013-02-07 00:02:00,13.0,11.0,30.22,North,0,0.0,1.0,93,0.00,,,0.00,,2013-02-07 05:02:00,
2013-02-07 00:12:00,13.0,11.0,30.22,North,0,0.0,1.0,93,0.00,,,0.00,,2013-02-07 05:12:00,
2013-02-07 00:21:00,12.0,10.0,30.23,North,0,0.0,1.0,93,0.00,,,0.00,,2013-02-07 05:21:00,
2013-02-07 00:32:00,12.0,11.0,30.22,North,0,0.0,0.0,94,0.00,,,0.00,,2013-02-07 05:32:00,
2013-02-07 00:42:00,12.0,11.0,30.22,North,0,0.0,0.0,94,0.00,,,0.00,,2013-02-07 05:42:00,
2013-02-07 00:52:00,12.0,10.0,30.23,North,0,0.0,0.0,93,0.00,,,0.00,,2013-02-07 05:52:00,
2013-02-07 01:02:00,12.0,10.0,30.24,North,0,0.0,2.0,93,0.00,,,0.00,,2013-02-07 06:02:00,
2013-02-07 01:11:00,12.0,10.0,30.24,North,0,0.0,2.0,93,0.00,,,0.00,,2013-02-07 06:11:00,
2013-02-07 01:22:00,12.0,11.0,30.25,North,0,0.0,2.0,94,0.00,,,0.00,,2013-02-07 06:22:00,
2013-02-07 01:32:00,11.0,9.0,30.25,North,0,0.0,3.0,92,0.00,,,0.00,,2013-02-07 06:32:00,
2013-02-07 01:43:00,11.0,9.0,30.25,North,0,0.0,3.0,92,0.00,,,0.00,,2013-02-07 06:43:00,
2013-02-07 01:52:00,11.0,9.0,30.22,North,0,0.0,2.0,93,0.00,,,0.00,,2013-02-07 06:52:00,
2013-02-07 02:02:00,11.0,9.0,30.22,North,0,0.0,0.0,93,0.00,,,0.00,,2013-02-07 07:02:00,
2013-02-07 02:11:00,11.0,9.0,30.22,North,0,0.0,0.0,93,0.00,,,0.00,,2013-02-07 07:11:00,
2013-02-07 02:22:00,11.0,9.0,30.22,North,0,0.0,0.0,93,0.00,,,0.00,,2013-02-07 07:22:00,
2013-02-07 02:32:00,12.0,10.0,30.22,North,0,0.0,0.0,93,0.00,,,0.00,,2013-02-07 07:32:00,
2013-02-07 02:42:00,12.0,10.0,30.22,North,0,0.0,0.0,93,0.00,,,0.00,,2013-02-07 07:42:00,
2013-02-07 02:52:00,10.0,8.0,30.23,North,0,0.0,3.0,91,0.00,,,0.00,,2013-02-07 07:52:00,
2013-02-07 03:02:00,9.0,7.0,30.22,North,0,0.0,3.0,91,0.00,,,0.00,,2013-02-07 08:02:00,
2013-02-07 03:11:00,9.0,7.0,30.22,North,0,0.0,3.0,91,0.00,,,0.00,,2013-02-07 08:11:00,
2013-02-07 03:22:00,10.0,8.0,30.21,North,0,0.0,0.0,92,0.00,,,0.00,,2013-02-07 08:22:00,
2013-02-07 03:32:00,12.0,11.0,30.20,North,0,0.0,1.0,95,0.00,,,0.00,,2013-02-07 08:32:00,
2013-02-07 03:42:00,12.0,11.0,30.20,North,0,0.0,1.0,95,0.00,,,0.00,,2013-02-07 08:42:00,
2013-02-07 03:52:00,11.0,9.0,30.18,North,0,0.0,0.0,92,0.00,,,0.00,,2013-02-07 08:52:00,
2013-02-07 04:02:00,10.0,8.0,30.19,NNW,331,1.0,3.0,91,0.00,,,0.00,,2013-02-07 09:02:00,
2013-02-07 04:11:00,10.0,8.0,30.19,NNW,331,1.0,3.0,91,0.00,,,0.00,,2013-02-07 09:11:00,
2013-02-07 04:21:00,10.0,8.0,30.20,North,0,0.0,0.0,93,0.00,,,0.00,,2013-02-07 09:21:00,
2013-02-07 04:32:00,11.0,9.0,30.20,North,0,0.0,0.0,93,0.00,,,0.00,,2013-02-07 09:32:00,
2013-02-07 04:42:00,11.0,9.0,30.20,North,0,0.0,0.0,93,0.00,,,0.00,,2013-02-07 09:42:00,
2013-02-07 04:52:00,12.0,10.0,30.20,North,0,0.0,1.0,93,0.00,,,0.00,,2013-02-07 09:52:00,
2013-02-07 05:02:00,17.0,16.0,30.21,North,0,0.0,2.0,97,0.00,,,0.00,,2013-02-07 10:02:00,
2013-02-07 05:11:00,17.0,16.0,30.21,North,0,0.0,2.0,97,0.00,,,0.00,,2013-02-07 10:11:00,
2013-02-07 05:22:00,18.0,17.0,30.22,North,0,0.0,3.0,96,0.00,,,0.00,,2013-02-07 10:22:00,
2013-02-07 05:32:00,20.0,18.0,30.22,North,0,0.0,8.0,93,0.00,,,0.00,,2013-02-07 10:32:00,
2013-02-07 05:42:00,20.0,18.0,30.22,North,0,0.0,8.0,93,0.00,,,0.00,,2013-02-07 10:42:00,
2013-02-07 05:51:00,21.0,19.0,30.23,ESE,116,1.0,8.0,91,0.00,,,0.00,,2013-02-07 10:51:00,
2013-02-07 06:01:00,21.0,19.0,30.24,North,0,0.0,6.0,90,0.00,,,0.00,,2013-02-07 11:01:00,
2013-02-07 06:11:00,21.0,19.0,30.24,North,0,0.0,6.0,90,0.00,,,0.00,,2013-02-07 11:11:00,
2013-02-07 06:23:00,21.0,19.0,30.24,North,0,0.0,4.0,90,0.00,,,0.00,,2013-02-07 11:23:00,
2013-02-07 06:32:00,21.0,18.0,30.24,ESE,111,1.0,6.0,89,0.00,,,0.00,,2013-02-07 11:32:00,
2013-02-07 06:44:00,21.0,18.0,30.24,ESE,111,1.0,6.0,89,0.00,,,0.00,,2013-02-07 11:44:00,
2013-02-07 06:53:00,22.0,19.0,30.24,ESE,112,2.0,6.0,88,0.00,,,0.00,,2013-02-07 11:53:00,
2013-02-07 07:02:00,22.0,19.0,30.24,ESE,119,3.0,9.0,88,0.00,,,0.00,,2013-02-07 12:02:00,
2013-02-07 07:11:00,22.0,19.0,30.24,ESE,119,3.0,9.0,88,0.00,,,0.00,,2013-02-07 12:11:00,
2013-02-07 07:22:00,22.0,19.0,30.25,ESE,111,2.0,7.0,87,0.00,,,0.00,,2013-02-07 12:22:00,
2013-02-07 07:33:00,22.0,19.0,30.25,SE,132,1.0,7.0,87,0.00,,,0.00,,2013-02-07 12:33:00,
2013-02-07 07:42:00,22.0,19.0,30.25,SE,132,1.0,7.0,87,0.00,,,0.00,,2013-02-07 12:42:00,
2013-02-07 07:53:00,23.0,19.0,30.25,North,0,0.0,8.0,86,0.00,,,0.00,,2013-02-07 12:53:00,
2013-02-07 08:03:00,23.0,19.0,30.25,ESE,111,1.0,8.0,86,0.00,,,0.00,,2013-02-07 13:03:00,
2013-02-07 08:12:00,23.0,19.0,30.25,ESE,111,1.0,8.0,86,0.00,,,0.00,,2013-02-07 13:12:00,
2013-02-07 08:22:00,23.0,19.0,30.25,SE,124,1.0,8.0,86,0.00,,,0.00,,2013-02-07 13:22:00,
2013-02-07 08:32:00,23.0,19.0,30.25,North,0,0.0,6.0,86,0.00,,,0.00,,2013-02-07 13:32:00,
2013-02-07 08:42:00,23.0,19.0,30.25,North,0,0.0,6.0,86,0.00,,,0.00,,2013-02-07 13:42:00,
2013-02-07 08:52:00,24.0,20.0,30.25,ESE,112,2.0,8.0,85,0.00,,,0.00,,2013-02-07 13:52:00,
2013-02-07 09:01:00,24.0,20.0,30.25,ESE,112,2.0,8.0,85,0.00,,,0.00,,2013-02-07 14:01:00,
2013-02-07 09:11:00,24.0,20.0,30.25,ESE,112,2.0,8.0,85,0.00,,,0.00,,2013-02-07 14:11:00,
2013-02-07 09:22:00,25.0,21.0,30.25,South,181,2.0,7.0,85,0.00,,,0.00,,2013-02-07 14:22:00,
2013-02-07 09:32:00,25.0,21.0,30.25,ESE,120,2.0,8.0,84,0.00,,,0.00,,2013-02-07 14:32:00,
2013-02-07 09:42:00,25.0,21.0,30.25,ESE,120,2.0,8.0,84,0.00,,,0.00,,2013-02-07 14:42:00,
2013-02-07 09:52:00,25.0,21.0,30.25,ESE,120,1.0,7.0,84,0.00,,,0.00,,2013-02-07 14:52:00,
2013-02-07 10:02:00,26.0,22.0,30.25,North,0,0.0,5.0,84,0.00,,,0.00,,2013-02-07 15:02:00,
2013-02-07 10:11:00,26.0,22.0,30.25,North,0,0.0,5.0,84,0.00,,,0.00,,2013-02-07 15:11:00,
2013-02-07 10:22:00,26.0,22.0,30.24,ESE,112,2.0,7.0,84,0.00,,,0.00,,2013-02-07 15:22:00,
2013-02-07 10:32:00,26.0,22.0,30.24,ESE,102,2.0,7.0,84,0.00,,,0.00,,2013-02-07 15:32:00,
2013-02-07 10:42:00,26.0,22.0,30.24,ESE,102,2.0,7.0,84,0.00,,,0.00,,2013-02-07 15:42:00,
2013-02-07 10:52:00,27.0,22.0,30.24,SE,133,3.0,9.0,82,0.00,,,0.00,,2013-02-07 15:52:00,
2013-02-07 11:01:00,27.0,23.0,30.23,SE,127,2.0,11.0,83,0.00,,,0.00,,2013-02-07 16:01:00,
2013-02-07 11:11:00,27.0,23.0,30.23,SE,127,2.0,11.0,83,0.00,,,0.00,,2013-02-07 16:11:00,
2013-02-07 11:22:00,27.0,22.0,30.23,SE,128,1.0,10.0,82,0.00,,,0.00,,2013-02-07 16:22:00,
2013-02-07 11:32:00,27.0,22.0,30.23,SE,128,1.0,10.0,82,0.00,,,0.00,,2013-02-07 16:32:00,
2013-02-07 11:42:00,27.0,22.0,30.23,SE,128,1.0,10.0,82,0.00,,,0.00,,2013-02-07 16:42:00,
2013-02-07 11:52:00,28.0,23.0,30.22,SSE,147,2.0,7.0,81,0.00,,,0.00,,2013-02-07 16:52:00,
2013-02-07 12:01:00,28.0,23.0,30.22,ESE,116,2.0,8.0,81,0.00,,,0.00,,2013-02-07 17:01:00,
2013-02-07 12:11:00,29.0,24.0,30.21,SSW,193,1.0,5.0,81,0.00,,,0.00,,2013-02-07 17:11:00,
2013-02-07 12:21:00,29.0,24.0,30.21,SSW,193,1.0,5.0,81,0.00,,,0.00,,2013-02-07 17:21:00,
2013-02-07 12:32:00,30.0,25.0,30.20,South,170,1.0,6.0,80,0.00,,,0.00,,2013-02-07 17:32:00,
2013-02-07 12:43:00,30.0,25.0,30.20,South,170,1.0,6.0,80,0.00,,,0.00,,2013-02-07 17:43:00,
2013-02-07 12:52:00,30.0,24.0,30.18,South,183,2.0,5.0,79,0.00,,,0.00,,2013-02-07 17:52:00,
2013-02-07 13:02:00,31.0,25.0,30.17,ESE,120,2.0,7.0,79,0.00,,,0.00,,2013-02-07 18:02:00,
2013-02-07 13:11:00,31.0,25.0,30.17,ESE,120,2.0,7.0,79,0.00,,,0.00,,2013-02-07 18:11:00,
2013-02-07 13:23:00,31.0,25.0,30.17,ESE,120,1.0,8.0,79,0.00,,,0.00,,2013-02-07 18:23:00,
2013-02-07 13:32:00,31.0,25.0,30.16,East,100,2.0,7.0,79,0.00,,,0.00,,2013-02-07 18:32:00,
2013-02-07 13:42:00,31.0,25.0,30.16,East,100,2.0,7.0,79,0.00,,,0.00,,2013-02-07 18:42:00,
2013-02-07 13:52:00,31.0,26.0,30.15,ESE,104,3.0,8.0,80,0.00,,,0.00,,2013-02-07 18:52:00,
2013-02-07 14:01:00,31.0,25.0,30.14,ESE,107,2.0,5.0,78,0.00,,,0.00,,2013-02-07 19:01:00,
2013-02-07 14:11:00,31.0,25.0,30.14,ESE,107,2.0,5.0,78,0.00,,,0.00,,2013-02-07 19:11:00,
2013-02-07 14:22:00,31.0,25.0,30.13,SE,131,2.0,7.0,79,0.00,,,0.00,,2013-02-07 19:22:00,
2013-02-07 14:32:00,31.0,25.0,30.12,East,99,1.0,9.0,79,0.00,,,0.00,,2013-02-07 19:32:00,
2013-02-07 14:42:00,31.0,25.0,30.12,East,99,1.0,9.0,79,0.00,,,0.00,,2013-02-07 19:42:00,
2013-02-07 14:52:00,30.0,24.0,30.12,ESE,115,6.0,8.0,79,0.01,,,0.01,,2013-02-07 19:52:00,
2013-02-07 15:01:00,30.0,25.0,30.12,ESE,103,4.0,10.0,80,0.01,,,0.01,,2013-02-07 20:01:00,
2013-02-07 15:11:00,30.0,25.0,30.12,ESE,103,4.0,10.0,80,0.01,,,0.01,,2013-02-07 20:11:00,
2013-02-07 15:22:00,30.0,25.0,30.12,ESE,109,4.0,10.0,80,0.01,,,0.01,,2013-02-07 20:22:00,
2013-02-07 15:32:00,30.0,25.0,30.12,ESE,111,2.0,10.0,80,0.01,,,0.01,,2013-02-07 20:32:00,
2013-02-07 15:42:00,30.0,25.0,30.12,ESE,111,2.0,10.0,80,0.01,,,0.01,,2013-02-07 20:42:00,
2013-02-07 15:52:00,30.0,25.0,30.11,East,100,5.0,12.0,80,0.00,,,0.01,,2013-02-07 20:52:00,
2013-02-07 16:02:00,30.0,25.0,30.12,ESE,109,4.0,11.0,80,0.00,,,0.01,,2013-02-07 21:02:00,
2013-02-07 16:11:00,30.0,25.0,30.12,ESE,109,4.0,11.0,80,0.00,,,0.01,,2013-02-07 21:11:00,
2013-02-07 16:22:00,30.0,25.0,30.11,SE,125,4.0,11.0,80,0.00,,,0.01,,2013-02-07 21:22:00,
2013-02-07 16:32:00,30.0,25.0,30.12,ESE,115,4.0,14.0,80,0.00,,,0.01,,2013-02-07 21:32:00,
2013-02-07 16:42:00,30.0,25.0,30.12,ESE,115,4.0,14.0,80,0.00,,,0.01,,2013-02-07 21:42:00,
2013-02-07 16:52:00,30.0,25.0,30.11,East,95,4.0,10.0,80,0.00,,,0.01,,2013-02-07 21:52:00,
2013-02-07 17:02:00,30.0,25.0,30.11,East,93,4.0,9.0,80,0.00,,,0.01,,2013-02-07 22:02:00,
2013-02-07 17:11:00,30.0,25.0,30.11,East,93,4.0,9.0,80,0.00,,,0.01,,2013-02-07 22:11:00,
2013-02-07 17:21:00,29.0,24.0,30.11,East,95,3.0,7.0,80,0.00,,,0.01,,2013-02-07 22:21:00,
2013-02-07 17:32:00,29.0,24.0,30.10,ESE,106,6.0,12.0,80,0.00,,,0.01,,2013-02-07 22:32:00,
2013-02-07 17:42:00,29.0,24.0,30.10,ESE,106,6.0,12.0,80,0.00,,,0.01,,2013-02-07 22:42:00,
2013-02-07 17:52:00,29.0,24.0,30.10,ESE,105,5.0,12.0,80,0.00,,,0.01,,2013-02-07 22:52:00,
2013-02-07 18:01:00,28.0,23.0,30.10,East,98,3.0,12.0,80,0.00,,,0.01,,2013-02-07 23:01:00,
2013-02-07 18:11:00,28.0,23.0,30.10,East,98,3.0,12.0,80,0.00,,,0.01,,2013-02-07 23:11:00,
2013-02-07 18:22:00,28.0,23.0,30.10,East,100,4.0,11.0,80,0.00,,,0.01,,2013-02-07 23:22:00,
2013-02-07 18:32:00,28.0,23.0,30.10,East,95,6.0,15.0,81,0.00,,,0.01,,2013-02-07 23:32:00,
2013-02-07 18:42:00,28.0,23.0,30.10,East,95,6.0,15.0,81,0.00,,,0.01,,2013-02-07 23:42:00,
2013-02-07 18:52:00,28.0,23.0,30.11,ESE,103,3.0,8.0,81,0.00,,,0.01,,2013-02-07 23:52:00,
2013-02-07 19:02:00,28.0,23.0,30.11,ESE,103,3.0,8.0,81,0.00,,,0.01,,2013-02-08 00:02:00,
2013-02-07 19:11:00,28.0,23.0,30.11,ESE,103,3.0,8.0,81,0.00,,,0.01,,2013-02-08 00:11:00,
2013-02-07 19:22:00,28.0,23.0,30.12,SE,135,5.0,9.0,82,0.00,,,0.01,,2013-02-08 00:22:00,
2013-02-07 19:32:00,28.0,23.0,30.11,ESE,110,2.0,11.0,82,0.00,,,0.01,,2013-02-08 00:32:00,
2013-02-07 19:42:00,28.0,23.0,30.11,ESE,110,2.0,11.0,82,0.00,,,0.01,,2013-02-08 00:42:00,
2013-02-07 19:52:00,28.0,23.0,30.09,East,93,4.0,13.0,82,0.00,,,0.01,,2013-02-08 00:52:00,
2013-02-07 20:01:00,28.0,23.0,30.09,East,93,4.0,13.0,82,0.00,,,0.01,,2013-02-08 01:01:00,
2013-02-07 20:11:00,28.0,23.0,30.09,East,93,4.0,13.0,82,0.00,,,0.01,,2013-02-08 01:11:00,
2013-02-07 20:21:00,28.0,23.0,30.09,SE,124,8.0,15.0,82,0.00,,,0.01,,2013-02-08 01:21:00,
2013-02-07 20:32:00,28.0,23.0,30.09,ESE,111,6.0,13.0,82,0.00,,,0.01,,2013-02-08 01:32:00,
2013-02-07 20:42:00,28.0,23.0,30.09,ESE,111,6.0,13.0,82,0.00,,,0.01,,2013-02-08 01:42:00,
2013-02-07 20:52:00,28.0,23.0,30.08,ESE,122,3.0,13.0,82,0.00,,,0.01,,2013-02-08 01:52:00,
2013-02-07 21:01:00,28.0,23.0,30.08,ESE,114,5.0,15.0,82,0.00,,,0.01,,2013-02-08 02:01:00,
2013-02-07 21:11:00,28.0,23.0,30.08,ESE,114,5.0,15.0,82,0.00,,,0.01,,2013-02-08 02:11:00,
2013-02-07 21:21:00,28.0,23.0,30.07,ESE,120,5.0,13.0,82,0.00,,,0.01,,2013-02-08 02:21:00,
2013-02-07 21:32:00,28.0,23.0,30.06,ESE,121,4.0,18.0,82,0.00,,,0.01,,2013-02-08 02:32:00,
2013-02-07 21:42:00,28.0,23.0,30.06,ESE,121,4.0,18.0,82,0.00,,,0.01,,2013-02-08 02:42:00,
2013-02-07 21:52:00,28.0,23.0,30.06,SE,128,3.0,13.0,82,0.00,,,0.01,,2013-02-08 02:52:00,
2013-02-07 22:02:00,28.0,23.0,30.06,East,86,1.0,15.0,82,0.00,,,0.01,,2013-02-08 03:02:00,
2013-02-07 22:12:00,28.0,23.0,30.06,East,86,1.0,15.0,82,0.00,,,0.01,,2013-02-08 03:12:00,
2013-02-07 22:22:00,28.0,23.0,30.06,East,98,3.0,9.0,82,0.00,,,0.01,,2013-02-08 03:22:00,
2013-02-07 22:32:00,28.0,23.0,30.06,East,98,3.0,9.0,82,0.00,,,0.01,,2013-02-08 03:32:00,
2013-02-07 22:42:00,28.0,23.0,30.06,East,98,3.0,9.0,82,0.00,,,0.01,,2013-02-08 03:42:00,
2013-02-07 22:52:00,28.0,23.0,30.07,ESE,118,6.0,16.0,82,0.00,,,0.01,,2013-02-08 03:52:00,
2013-02-07 23:02:00,28.0,23.0,30.06,ESE,115,6.0,12.0,82,0.00,,,0.01,,2013-02-08 04:02:00,
2013-02-07 23:11:00,28.0,23.0,30.06,ESE,115,6.0,12.0,82,0.00,,,0.01,,2013-02-08 04:11:00,
2013-02-07 23:21:00,28.0,24.0,30.06,ESE,119,1.0,16.0,83,0.00,,,0.01,,2013-02-08 04:21:00,
2013-02-07 23:32:00,28.0,24.0,30.05,ESE,121,2.0,12.0,83,0.00,,,0.01,,2013-02-08 04:32:00,
2013-02-07 23:42:00,28.0,24.0,30.05,ESE,121,2.0,12.0,83,0.00,,,0.01,,2013-02-08 04:42:00,
2013-02-07 23:51:00,28.0,24.0,30.04,SE,125,5.0,17.0,84,0.00,,,0.01,,2013-02-08 04:51:00,